TimeHST,TemperatureF,Dew PointF,Humidity,Sea Level PressureIn,VisibilityMPH,Wind Direction,Wind SpeedMPH,Gust SpeedMPH,PrecipitationIn,Events,Conditions,WindDirDegrees,DateUTC
12:53 AM,70.0,61.0,73,29.94,10.0,ENE,3.5,-,N/A,,Clear,70,2012-02-04 10:53:00
1:53 AM,69.1,61.0,75,29.92,10.0,ENE,4.6,-,N/A,,Clear,70,2012-02-04 11:53:00
2:53 AM,68.0,60.1,76,29.91,10.0,East,5.8,-,N/A,,Clear,80,2012-02-04 12:53:00
3:53 AM,68.0,60.1,76,29.89,10.0,ENE,5.8,-,N/A,,Clear,70,2012-02-04 13:53:00
4:53 AM,66.9,60.1,79,29.89,10.0,ENE,3.5,-,N/A,,Clear,70,2012-02-04 14:53:00
5:53 AM,66.0,59.0,78,29.90,10.0,ENE,4.6,-,N/A,,Clear,70,2012-02-04 15:53:00
6:53 AM,66.0,57.9,75,29.91,10.0,ENE,4.6,-,N/A,,Clear,70,2012-02-04 16:53:00
7:53 AM,69.1,60.1,73,29.92,10.0,ENE,5.8,-,N/A,,Clear,70,2012-02-04 17:53:00
8:53 AM,75.0,60.1,60,29.93,10.0,Calm,Calm,-,N/A,,Clear,0,2012-02-04 18:53:00
9:53 AM,77.0,60.1,56,29.94,10.0,Variable,3.5,-,N/A,,Clear,0,2012-02-04 19:53:00
10:53 AM,77.0,60.1,56,29.92,10.0,West,8.1,-,N/A,,Clear,270,2012-02-04 20:53:00
11:53 AM,78.1,60.1,54,29.90,10.0,WSW,8.1,-,N/A,,Clear,250,2012-02-04 21:53:00
12:53 PM,79.0,61.0,54,29.87,10.0,WSW,9.2,-,N/A,,Clear,240,2012-02-04 22:53:00
1:53 PM,78.1,61.0,56,29.84,10.0,WSW,11.5,-,N/A,,Clear,250,2012-02-04 23:53:00
2:53 PM,79.0,62.1,56,29.82,10.0,WSW,11.5,-,N/A,,Clear,250,2012-02-05 00:53:00
3:53 PM,78.1,62.1,58,29.83,10.0,West,11.5,-,N/A,,Clear,270,2012-02-05 01:53:00
4:53 PM,78.1,62.1,58,29.84,10.0,West,8.1,-,N/A,,Clear,270,2012-02-05 02:53:00
5:53 PM,75.9,63.0,64,29.85,10.0,NW,5.8,-,N/A,,Clear,310,2012-02-05 03:53:00
6:53 PM,75.0,63.0,66,29.86,10.0,WNW,4.6,-,N/A,,Partly Cloudy,290,2012-02-05 04:53:00
7:53 PM,75.0,64.0,69,29.87,10.0,Calm,Calm,-,N/A,,Scattered Clouds,0,2012-02-05 05:53:00
8:53 PM,73.9,64.0,71,29.88,10.0,Calm,Calm,-,N/A,,Mostly Cloudy,0,2012-02-05 06:53:00
9:53 PM,72.0,61.0,68,29.88,10.0,ENE,3.5,-,N/A,,Clear,70,2012-02-05 07:53:00
10:53 PM,72.0,61.0,68,29.88,10.0,ENE,4.6,-,N/A,,Clear,60,2012-02-05 08:53:00
11:53 PM,71.1,61.0,70,29.87,10.0,Calm,Calm,-,N/A,,Clear,0,2012-02-05 09:53:00